Time,TemperatureF,DewpointF,PressureIn,WindDirection,WindDirectionDegrees,WindSpeedMPH,WindSpeedGustMPH,Humidity,HourlyPrecipIn,Conditions,Clouds,dailyrainin,SoftwareType,DateUTC
2013-05-15 00:01:00,50.8,39.5,30.09,WSW,240,8.0,11.0,65,0.00,,---,0.00,VWS V14.01,2013-05-15 04:01:00,
2013-05-15 00:06:00,50.8,40.2,30.09,WSW,246,4.0,8.0,67,0.00,,---,0.00,VWS V14.01,2013-05-15 04:06:00,
2013-05-15 00:11:00,50.9,41.1,30.09,WSW,256,5.0,9.0,69,0.00,,---,0.00,VWS V14.01,2013-05-15 04:11:00,
2013-05-15 00:16:00,50.9,41.5,30.09,SW,233,5.0,9.0,70,0.00,,---,0.00,VWS V14.01,2013-05-15 04:16:00,
2013-05-15 00:21:00,50.9,41.1,30.09,SW,226,4.0,9.0,69,0.00,,---,0.00,VWS V14.01,2013-05-15 04:21:00,
2013-05-15 00:26:00,50.8,41.4,30.09,SW,225,6.0,9.0,70,0.00,,---,0.00,VWS V14.01,2013-05-15 04:26:00,
2013-05-15 00:31:00,50.9,41.5,30.09,SW,215,4.0,9.0,70,0.00,,---,0.00,VWS V14.01,2013-05-15 04:31:00,
2013-05-15 00:36:00,51.0,41.6,30.09,SW,231,4.0,6.0,70,0.00,,---,0.00,VWS V14.01,2013-05-15 04:36:00,
2013-05-15 00:41:00,51.0,41.6,30.09,SW,233,5.0,9.0,70,0.00,,---,0.00,VWS V14.01,2013-05-15 04:41:00,
2013-05-15 00:46:00,51.1,42.0,30.09,SW,222,4.0,9.0,71,0.00,,---,0.00,VWS V14.01,2013-05-15 04:46:00,
2013-05-15 00:51:00,51.2,42.5,30.09,SW,229,5.0,9.0,72,0.00,,---,0.00,VWS V14.01,2013-05-15 04:51:00,
2013-05-15 00:56:00,51.2,42.1,30.09,South,187,3.0,9.0,71,0.00,,---,0.00,VWS V14.01,2013-05-15 04:56:00,
2013-05-15 01:01:00,51.2,42.5,30.08,SW,222,5.0,9.0,72,0.00,,---,0.00,VWS V14.01,2013-05-15 05:01:00,
2013-05-15 01:06:00,51.3,43.0,30.08,WSW,239,3.0,6.0,73,0.00,,---,0.00,VWS V14.01,2013-05-15 05:06:00,
2013-05-15 01:11:00,51.3,43.0,30.08,SW,218,4.0,6.0,73,0.00,,---,0.00,VWS V14.01,2013-05-15 05:11:00,
2013-05-15 01:16:00,51.3,43.0,30.08,SW,222,2.0,6.0,73,0.00,,---,0.00,VWS V14.01,2013-05-15 05:16:00,
2013-05-15 01:21:00,51.4,43.0,30.08,SW,224,4.0,6.0,73,0.00,,---,0.00,VWS V14.01,2013-05-15 05:21:00,
2013-05-15 01:26:00,51.6,43.2,30.08,SSW,212,4.0,7.0,73,0.00,,---,0.00,VWS V14.01,2013-05-15 05:26:00,
2013-05-15 01:31:00,51.7,43.3,30.08,SW,233,4.0,8.0,73,0.00,,---,0.00,VWS V14.01,2013-05-15 05:31:00,
2013-05-15 01:36:00,51.8,43.4,30.08,SW,222,7.0,8.0,73,0.00,,---,0.00,VWS V14.01,2013-05-15 05:36:00,
2013-05-15 01:41:00,52.0,44.0,30.08,SW,229,5.0,8.0,74,0.00,,---,0.00,VWS V14.01,2013-05-15 05:41:00,
2013-05-15 01:46:00,51.9,43.9,30.08,SW,227,7.0,9.0,74,0.00,,---,0.00,VWS V14.01,2013-05-15 05:46:00,
2013-05-15 01:51:00,51.9,44.2,30.08,SW,226,3.0,9.0,75,0.00,,---,0.00,VWS V14.01,2013-05-15 05:51:00,
2013-05-15 01:56:00,51.8,44.5,30.08,SW,232,5.0,9.0,76,0.00,,---,0.00,VWS V14.01,2013-05-15 05:56:00,
2013-05-15 02:01:00,51.8,44.5,30.08,SW,221,4.0,9.0,76,0.00,,---,0.00,VWS V14.01,2013-05-15 06:01:00,
2013-05-15 02:06:00,51.8,44.1,30.07,SW,233,4.0,7.0,75,0.00,,---,0.00,VWS V14.01,2013-05-15 06:06:00,
2013-05-15 02:11:00,51.8,44.1,30.07,SSW,198,2.0,7.0,75,0.00,,---,0.00,VWS V14.01,2013-05-15 06:11:00,
2013-05-15 02:16:00,51.9,44.2,30.07,SW,217,4.0,8.0,75,0.00,,---,0.00,VWS V14.01,2013-05-15 06:16:00,
2013-05-15 02:21:00,52.0,44.3,30.07,SSW,207,3.0,8.0,75,0.00,,---,0.00,VWS V14.01,2013-05-15 06:21:00,
2013-05-15 02:26:00,52.1,44.4,30.07,SW,217,3.0,8.0,75,0.00,,---,0.00,VWS V14.01,2013-05-15 06:26:00,
2013-05-15 02:31:00,52.2,44.5,30.07,WSW,250,6.0,8.0,75,0.00,,---,0.00,VWS V14.01,2013-05-15 06:31:00,
2013-05-15 02:36:00,52.2,44.5,30.07,SSW,207,3.0,5.0,75,0.00,,---,0.00,VWS V14.01,2013-05-15 06:36:00,
2013-05-15 02:41:00,52.3,44.6,30.06,SSW,208,2.0,6.0,75,0.00,,---,0.00,VWS V14.01,2013-05-15 06:41:00,
2013-05-15 02:46:00,52.5,44.8,30.06,SSW,193,3.0,6.0,75,0.00,,---,0.00,VWS V14.01,2013-05-15 06:46:00,
2013-05-15 02:51:00,52.5,45.2,30.07,SW,224,4.0,6.0,76,0.00,,---,0.00,VWS V14.01,2013-05-15 06:51:00,
2013-05-15 02:56:00,52.6,45.3,30.06,SSW,210,3.0,6.0,76,0.00,,---,0.00,VWS V14.01,2013-05-15 06:56:00,
2013-05-15 03:01:00,52.6,44.9,30.06,WSW,249,1.0,7.0,75,0.00,,---,0.00,VWS V14.01,2013-05-15 07:01:00,
2013-05-15 03:06:00,52.7,45.0,30.06,SW,222,1.0,5.0,75,0.00,,---,0.00,VWS V14.01,2013-05-15 07:06:00,
2013-05-15 03:11:00,52.8,45.1,30.06,SW,235,2.0,6.0,75,0.00,,---,0.00,VWS V14.01,2013-05-15 07:11:00,
2013-05-15 03:16:00,53.0,45.7,30.06,SSW,207,1.0,6.0,76,0.00,,---,0.00,VWS V14.01,2013-05-15 07:16:00,
2013-05-15 03:21:00,53.1,45.4,30.06,SSW,207,4.0,8.0,75,0.00,,---,0.00,VWS V14.01,2013-05-15 07:21:00,
2013-05-15 03:26:00,53.3,45.9,30.06,SSE,152,4.0,8.0,76,0.00,,---,0.00,VWS V14.01,2013-05-15 07:26:00,
2013-05-15 03:31:00,53.4,46.0,30.06,SSW,198,3.0,10.0,76,0.00,,---,0.00,VWS V14.01,2013-05-15 07:31:00,
2013-05-15 03:36:00,53.6,46.2,30.05,SSW,205,1.0,7.0,76,0.00,,---,0.00,VWS V14.01,2013-05-15 07:36:00,
2013-05-15 03:41:00,53.7,46.3,30.06,SW,222,3.0,7.0,76,0.00,,---,0.00,VWS V14.01,2013-05-15 07:41:00,
2013-05-15 03:46:00,53.8,46.4,30.06,SSW,211,4.0,8.0,76,0.00,,---,0.00,VWS V14.01,2013-05-15 07:46:00,
2013-05-15 03:51:00,53.9,46.5,30.05,SSW,197,2.0,8.0,76,0.00,,---,0.00,VWS V14.01,2013-05-15 07:51:00,
2013-05-15 03:56:00,53.9,46.2,30.05,SSW,211,5.0,8.0,75,0.00,,---,0.00,VWS V14.01,2013-05-15 07:56:00,
2013-05-15 04:01:00,54.1,46.4,30.05,SW,214,1.0,8.0,75,0.00,,---,0.00,VWS V14.01,2013-05-15 08:01:00,
2013-05-15 04:06:00,54.1,46.4,30.05,South,173,2.0,4.0,75,0.00,,---,0.00,VWS V14.01,2013-05-15 08:06:00,
2013-05-15 04:11:00,54.2,46.5,30.05,SW,215,3.0,6.0,75,0.00,,---,0.00,VWS V14.01,2013-05-15 08:11:00,
2013-05-15 04:16:00,54.3,46.2,30.05,SSW,201,3.0,6.0,74,0.00,,---,0.00,VWS V14.01,2013-05-15 08:16:00,
2013-05-15 04:21:00,54.4,46.3,30.05,SSW,204,2.0,6.0,74,0.00,,---,0.00,VWS V14.01,2013-05-15 08:21:00,
2013-05-15 04:26:00,54.5,46.4,30.05,SW,224,1.0,6.0,74,0.00,,---,0.00,VWS V14.01,2013-05-15 08:26:00,
2013-05-15 04:31:00,54.5,46.8,30.05,South,176,2.0,6.0,75,0.00,,---,0.00,VWS V14.01,2013-05-15 08:31:00,
2013-05-15 04:36:00,54.6,46.8,30.05,SSE,155,2.0,4.0,75,0.00,,---,0.00,VWS V14.01,2013-05-15 08:36:00,
2013-05-15 04:41:00,54.7,47.3,30.04,SSW,194,3.0,7.0,76,0.00,,---,0.00,VWS V14.01,2013-05-15 08:41:00,
2013-05-15 04:46:00,54.8,47.7,30.04,SE,141,2.0,7.0,77,0.00,,---,0.00,VWS V14.01,2013-05-15 08:46:00,
2013-05-15 04:51:00,54.8,47.7,30.04,SSW,205,1.0,7.0,77,0.00,,---,0.00,VWS V14.01,2013-05-15 08:51:00,
2013-05-15 04:56:00,54.9,48.2,30.04,SW,224,5.0,7.0,78,0.00,,---,0.00,VWS V14.01,2013-05-15 08:56:00,
2013-05-15 05:01:00,54.9,48.5,30.04,SSW,211,3.0,7.0,79,0.00,,---,0.00,VWS V14.01,2013-05-15 09:01:00,
2013-05-15 05:06:00,55.0,49.0,30.04,SW,217,4.0,6.0,80,0.00,,---,0.00,VWS V14.01,2013-05-15 09:06:00,
2013-05-15 05:11:00,55.0,49.3,30.04,SW,215,5.0,6.0,81,0.00,,---,0.00,VWS V14.01,2013-05-15 09:11:00,
2013-05-15 05:16:00,55.0,49.3,30.04,SSW,197,1.0,8.0,81,0.00,,---,0.00,VWS V14.01,2013-05-15 09:16:00,
2013-05-15 05:21:00,55.0,49.6,30.04,South,190,0.0,8.0,82,0.00,,---,0.00,VWS V14.01,2013-05-15 09:21:00,
2013-05-15 05:26:00,55.0,49.6,30.04,SSW,211,3.0,8.0,82,0.00,,---,0.00,VWS V14.01,2013-05-15 09:26:00,
2013-05-15 05:31:00,55.1,49.7,30.05,WSW,252,3.0,8.0,82,0.00,,---,0.00,VWS V14.01,2013-05-15 09:31:00,
2013-05-15 05:36:00,55.1,49.4,30.04,South,188,2.0,5.0,81,0.00,,---,0.00,VWS V14.01,2013-05-15 09:36:00,
2013-05-15 05:41:00,55.2,49.5,30.04,South,191,1.0,6.0,81,0.00,,---,0.00,VWS V14.01,2013-05-15 09:41:00,
2013-05-15 05:46:00,55.2,49.5,30.04,SSW,200,2.0,6.0,81,0.00,,---,0.00,VWS V14.01,2013-05-15 09:46:00,
2013-05-15 05:51:00,55.1,49.4,30.04,SW,219,1.0,7.0,81,0.00,,---,0.00,VWS V14.01,2013-05-15 09:51:00,
2013-05-15 05:56:00,55.2,49.5,30.04,SSW,207,2.0,7.0,81,0.00,,---,0.00,VWS V14.01,2013-05-15 09:56:00,
2013-05-15 06:01:00,55.2,49.5,30.04,SW,218,2.0,8.0,81,0.00,,---,0.00,VWS V14.01,2013-05-15 10:01:00,
2013-05-15 06:06:00,55.2,49.2,30.04,South,174,4.0,8.0,80,0.00,,---,0.00,VWS V14.01,2013-05-15 10:06:00,
2013-05-15 06:11:00,55.3,49.6,30.04,South,180,5.0,9.0,81,0.00,,---,0.00,VWS V14.01,2013-05-15 10:11:00,
2013-05-15 06:16:00,55.4,50.0,30.04,SW,217,2.0,9.0,82,0.00,,---,0.00,VWS V14.01,2013-05-15 10:16:00,
2013-05-15 06:21:00,55.5,50.4,30.04,SW,218,3.0,9.0,83,0.00,,---,0.00,VWS V14.01,2013-05-15 10:21:00,
2013-05-15 06:26:00,55.5,50.4,30.04,SW,215,7.0,9.0,83,0.00,,---,0.00,VWS V14.01,2013-05-15 10:26:00,
2013-05-15 06:31:00,55.5,50.8,30.04,SW,217,4.0,9.0,84,0.00,,---,0.00,VWS V14.01,2013-05-15 10:31:00,
2013-05-15 06:36:00,55.6,50.8,30.04,South,190,2.0,8.0,84,0.00,,---,0.00,VWS V14.01,2013-05-15 10:36:00,
2013-05-15 06:41:00,55.7,51.0,30.04,SSW,210,6.0,8.0,84,0.00,,---,0.00,VWS V14.01,2013-05-15 10:41:00,
2013-05-15 06:46:00,55.7,51.0,30.04,SW,221,5.0,9.0,84,0.00,,---,0.00,VWS V14.01,2013-05-15 10:46:00,
2013-05-15 06:51:00,55.7,51.0,30.04,SSW,210,3.0,9.0,84,0.00,,---,0.00,VWS V14.01,2013-05-15 10:51:00,
2013-05-15 06:56:00,55.8,51.0,30.04,South,181,4.0,9.0,84,0.00,,---,0.00,VWS V14.01,2013-05-15 10:56:00,
2013-05-15 07:02:00,55.9,51.1,30.04,South,185,1.0,2.0,84,0.00,,---,0.00,VWS V14.01,2013-05-15 11:02:00,
2013-05-15 07:07:00,56.0,51.2,30.04,SSW,200,4.0,7.0,84,0.00,,---,0.00,VWS V14.01,2013-05-15 11:07:00,
2013-05-15 07:12:00,56.1,51.0,30.03,WSW,252,6.0,8.0,83,0.00,,---,0.00,VWS V14.01,2013-05-15 11:12:00,
2013-05-15 07:17:00,56.1,50.7,30.03,SSW,209,5.0,11.0,82,0.00,,---,0.00,VWS V14.01,2013-05-15 11:17:00,
2013-05-15 07:22:00,56.2,50.8,30.03,SSW,198,3.0,11.0,82,0.00,,---,0.00,VWS V14.01,2013-05-15 11:22:00,
2013-05-15 07:27:00,56.3,50.9,30.03,SSE,153,8.0,11.0,82,0.00,,---,0.00,VWS V14.01,2013-05-15 11:27:00,
2013-05-15 07:32:00,56.3,50.9,30.03,South,187,4.0,7.0,82,0.00,,---,0.00,VWS V14.01,2013-05-15 11:32:00,
2013-05-15 07:37:00,56.3,50.5,30.02,SSW,212,4.0,9.0,81,0.00,,---,0.00,VWS V14.01,2013-05-15 11:37:00,
2013-05-15 07:42:00,56.4,50.7,30.02,SSE,152,2.0,9.0,81,0.00,,---,0.00,VWS V14.01,2013-05-15 11:42:00,
2013-05-15 07:47:00,56.6,50.5,30.02,South,188,7.0,9.0,80,0.00,,---,0.00,VWS V14.01,2013-05-15 11:47:00,
2013-05-15 07:52:00,56.8,49.7,30.02,SSW,207,4.0,10.0,77,0.00,,---,0.00,VWS V14.01,2013-05-15 11:52:00,
2013-05-15 07:57:00,56.9,49.8,30.01,SE,132,0.0,10.0,77,0.00,,---,0.00,VWS V14.01,2013-05-15 11:57:00,
2013-05-15 08:03:00,57.1,49.3,30.01,SSW,201,3.0,7.0,75,0.00,,---,0.00,VWS V14.01,2013-05-15 12:03:00,
2013-05-15 08:08:00,57.3,49.5,30.01,SSE,150,6.0,10.0,75,0.00,,---,0.00,VWS V14.01,2013-05-15 12:08:00,
2013-05-15 08:13:00,57.4,49.9,30.00,SSE,152,4.0,10.0,76,0.00,,---,0.00,VWS V14.01,2013-05-15 12:13:00,
2013-05-15 08:18:00,57.4,49.5,30.01,SSE,165,3.0,10.0,75,0.00,,---,0.00,VWS V14.01,2013-05-15 12:18:00,
2013-05-15 08:23:00,57.5,49.7,30.01,NE,56,1.0,10.0,75,0.00,,---,0.00,VWS V14.01,2013-05-15 12:23:00,
2013-05-15 08:28:00,57.8,49.9,30.00,SSW,195,3.0,10.0,75,0.00,,---,0.00,VWS V14.01,2013-05-15 12:28:00,
2013-05-15 08:33:00,58.0,49.8,30.00,SSE,166,5.0,9.0,74,0.00,,---,0.00,VWS V14.01,2013-05-15 12:33:00,
2013-05-15 08:39:00,58.5,49.9,30.00,WSW,245,0.0,11.0,73,0.00,,---,0.00,VWS V14.01,2013-05-15 12:39:00,
2013-05-15 08:44:00,59.1,50.1,30.00,SSE,152,4.0,11.0,72,0.00,,---,0.00,VWS V14.01,2013-05-15 12:44:00,
2013-05-15 08:49:00,59.3,49.5,30.00,SSE,155,8.0,11.0,70,0.00,,---,0.00,VWS V14.01,2013-05-15 12:49:00,
2013-05-15 08:54:00,59.5,50.1,30.00,South,186,8.0,11.0,71,0.00,,---,0.00,VWS V14.01,2013-05-15 12:54:00,
2013-05-15 08:59:00,59.7,49.5,30.00,SSW,204,6.0,11.0,69,0.00,,---,0.00,VWS V14.01,2013-05-15 12:59:00,
2013-05-15 09:04:00,59.8,49.2,29.99,SSW,206,8.0,13.0,68,0.00,,---,0.00,VWS V14.01,2013-05-15 13:04:00,
2013-05-15 09:09:00,59.8,49.6,29.99,West,264,7.0,13.0,69,0.00,,---,0.00,VWS V14.01,2013-05-15 13:09:00,
2013-05-15 09:15:00,60.3,50.1,29.99,South,174,2.0,13.0,69,0.00,,---,0.00,VWS V14.01,2013-05-15 13:15:00,
2013-05-15 09:20:00,60.4,49.0,29.99,SSW,210,7.0,13.0,66,0.00,,---,0.00,VWS V14.01,2013-05-15 13:20:00,
2013-05-15 09:25:00,60.2,48.8,29.98,SSE,166,8.0,14.0,66,0.00,,---,0.00,VWS V14.01,2013-05-15 13:25:00,
2013-05-15 09:30:00,60.3,49.3,29.97,East,94,6.0,14.0,67,0.00,,---,0.00,VWS V14.01,2013-05-15 13:30:00,
2013-05-15 09:35:00,60.5,49.5,29.96,SW,214,4.0,13.0,67,0.00,,---,0.00,VWS V14.01,2013-05-15 13:35:00,
2013-05-15 09:40:00,60.4,49.8,29.96,SE,146,8.0,17.0,68,0.00,,---,0.00,VWS V14.01,2013-05-15 13:40:00,
2013-05-15 09:46:00,60.5,50.3,29.97,South,176,5.0,17.0,69,0.00,,---,0.00,VWS V14.01,2013-05-15 13:46:00,
2013-05-15 09:51:00,60.9,51.5,29.97,SSE,155,4.0,17.0,71,0.00,,---,0.00,VWS V14.01,2013-05-15 13:51:00,
2013-05-15 09:56:00,61.1,51.2,29.97,South,176,9.0,17.0,70,0.00,,---,0.00,VWS V14.01,2013-05-15 13:56:00,
2013-05-15 10:01:00,61.2,51.7,29.96,SW,233,8.0,17.0,71,0.00,,---,0.00,VWS V14.01,2013-05-15 14:01:00,
2013-05-15 10:06:00,61.6,52.5,29.96,South,190,6.0,17.0,72,0.00,,---,0.00,VWS V14.01,2013-05-15 14:06:00,
2013-05-15 10:11:00,61.8,52.3,29.96,South,174,9.0,17.0,71,0.00,,---,0.00,VWS V14.01,2013-05-15 14:11:00,
2013-05-15 10:16:00,62.0,52.9,29.95,SSW,197,9.0,17.0,72,0.00,,---,0.00,VWS V14.01,2013-05-15 14:16:00,
2013-05-15 10:21:00,62.0,52.9,29.96,SW,217,6.0,17.0,72,0.00,,---,0.00,VWS V14.01,2013-05-15 14:21:00,
2013-05-15 10:26:00,61.9,52.8,29.95,SW,218,4.0,17.0,72,0.00,,---,0.00,VWS V14.01,2013-05-15 14:26:00,
2013-05-15 10:32:00,62.1,53.0,29.95,SSW,193,8.0,15.0,72,0.00,,---,0.00,VWS V14.01,2013-05-15 14:32:00,
2013-05-15 10:37:00,62.1,53.3,29.96,South,181,6.0,16.0,73,0.00,,---,0.00,VWS V14.01,2013-05-15 14:37:00,
2013-05-15 10:42:00,62.3,53.5,29.95,SSW,201,8.0,16.0,73,0.00,,---,0.00,VWS V14.01,2013-05-15 14:42:00,
2013-05-15 10:47:00,62.4,53.6,29.94,SW,236,7.0,16.0,73,0.00,,---,0.00,VWS V14.01,2013-05-15 14:47:00,
2013-05-15 10:52:00,62.3,53.9,29.95,SW,217,9.0,16.0,74,0.00,,---,0.00,VWS V14.01,2013-05-15 14:52:00,
2013-05-15 10:57:00,62.8,54.0,29.94,SSE,165,7.0,17.0,73,0.00,,---,0.00,VWS V14.01,2013-05-15 14:57:00,
2013-05-15 11:03:00,62.7,53.9,29.94,SE,134,7.0,20.0,73,0.00,,---,0.00,VWS V14.01,2013-05-15 15:03:00,
2013-05-15 11:08:00,62.8,54.8,29.94,SW,221,12.0,20.0,75,0.00,,---,0.00,VWS V14.01,2013-05-15 15:08:00,
2013-05-15 11:13:00,63.3,54.9,29.94,SSW,203,5.0,20.0,74,0.00,,---,0.00,VWS V14.01,2013-05-15 15:13:00,
2013-05-15 11:18:00,63.2,54.4,29.94,SSE,149,8.0,20.0,73,0.00,,---,0.00,VWS V14.01,2013-05-15 15:18:00,
2013-05-15 11:23:00,62.8,54.4,29.94,SSW,201,11.0,20.0,74,0.00,,---,0.00,VWS V14.01,2013-05-15 15:23:00,
2013-05-15 11:28:00,62.5,54.5,29.94,SW,230,6.0,20.0,75,0.00,,---,0.00,VWS V14.01,2013-05-15 15:28:00,
2013-05-15 11:33:00,62.0,54.4,29.94,SSW,204,3.0,17.0,76,0.00,,---,0.00,VWS V14.01,2013-05-15 15:33:00,
2013-05-15 11:38:00,62.0,54.7,29.93,South,180,7.0,17.0,77,0.00,,---,0.00,VWS V14.01,2013-05-15 15:38:00,
2013-05-15 11:44:00,62.1,55.2,29.93,SE,135,9.0,17.0,78,0.00,,---,0.00,VWS V14.01,2013-05-15 15:44:00,
2013-05-15 11:49:00,62.3,55.4,29.93,SW,228,4.0,17.0,78,0.00,,---,0.00,VWS V14.01,2013-05-15 15:49:00,
2013-05-15 11:54:00,62.5,55.2,29.92,SSE,160,8.0,17.0,77,0.00,,---,0.00,VWS V14.01,2013-05-15 15:54:00,
2013-05-15 11:59:00,62.7,55.4,29.92,SSW,194,10.0,17.0,77,0.00,,---,0.00,VWS V14.01,2013-05-15 15:59:00,
2013-05-15 12:04:00,62.7,55.4,29.91,SSE,155,4.0,13.0,77,0.00,,---,0.00,VWS V14.01,2013-05-15 16:04:00,
2013-05-15 12:09:00,62.7,55.4,29.91,South,191,5.0,13.0,77,0.00,,---,0.00,VWS V14.01,2013-05-15 16:09:00,
2013-05-15 12:14:00,62.6,55.7,29.91,South,173,5.0,13.0,78,0.00,,---,0.00,VWS V14.01,2013-05-15 16:14:00,
2013-05-15 12:19:00,62.1,55.2,29.91,SSW,197,6.0,13.0,78,0.00,,---,0.00,VWS V14.01,2013-05-15 16:19:00,
2013-05-15 12:24:00,61.7,55.1,29.90,ESE,114,8.0,13.0,79,0.00,,---,0.00,VWS V14.01,2013-05-15 16:24:00,
2013-05-15 12:29:00,61.7,55.5,29.89,South,187,9.0,14.0,80,0.00,,---,0.00,VWS V14.01,2013-05-15 16:29:00,
2013-05-15 12:35:00,61.8,55.6,29.89,ESE,106,11.0,12.0,80,0.00,,---,0.00,VWS V14.01,2013-05-15 16:35:00,
2013-05-15 12:40:00,61.3,55.1,29.88,SSW,194,7.0,16.0,80,0.00,,---,0.00,VWS V14.01,2013-05-15 16:40:00,
2013-05-15 12:45:00,61.1,55.2,29.88,SW,217,10.0,16.0,81,0.00,,---,0.00,VWS V14.01,2013-05-15 16:45:00,
2013-05-15 12:50:00,60.9,55.0,29.88,SSE,163,3.0,16.0,81,0.00,,---,0.00,VWS V14.01,2013-05-15 16:50:00,
2013-05-15 12:55:00,61.1,55.6,29.88,ESE,118,5.0,16.0,82,0.00,,---,0.00,VWS V14.01,2013-05-15 16:55:00,
2013-05-15 13:00:00,61.5,55.3,29.88,SSW,207,6.0,16.0,80,0.00,,---,0.00,VWS V14.01,2013-05-15 17:00:00,
2013-05-15 13:06:00,61.7,55.5,29.87,South,188,5.0,11.0,80,0.00,,---,0.00,VWS V14.01,2013-05-15 17:06:00,
2013-05-15 13:11:00,61.4,55.2,29.86,SSE,158,5.0,18.0,80,0.00,,---,0.00,VWS V14.01,2013-05-15 17:11:00,
2013-05-15 13:16:00,61.7,55.8,29.86,SSE,165,8.0,18.0,81,0.00,,---,0.00,VWS V14.01,2013-05-15 17:16:00,
2013-05-15 13:21:00,62.1,55.5,29.86,East,83,4.0,18.0,79,0.00,,---,0.00,VWS V14.01,2013-05-15 17:21:00,
2013-05-15 13:26:00,62.4,55.5,29.86,SSW,207,8.0,18.0,78,0.00,,---,0.00,VWS V14.01,2013-05-15 17:26:00,
2013-05-15 13:31:00,62.2,55.6,29.86,South,187,5.0,18.0,79,0.00,,---,0.00,VWS V14.01,2013-05-15 17:31:00,
2013-05-15 13:36:00,62.5,55.9,29.87,SSW,206,6.0,14.0,79,0.00,,---,0.00,VWS V14.01,2013-05-15 17:36:00,
2013-05-15 13:42:00,62.8,56.2,29.87,SSE,155,3.0,14.0,79,0.00,,---,0.00,VWS V14.01,2013-05-15 17:42:00,
2013-05-15 13:47:00,63.3,56.3,29.86,SSE,152,3.0,14.0,78,0.00,,---,0.00,VWS V14.01,2013-05-15 17:47:00,
2013-05-15 13:52:00,63.4,56.4,29.86,South,172,7.0,14.0,78,0.00,,---,0.00,VWS V14.01,2013-05-15 17:52:00,
2013-05-15 13:57:00,63.1,56.5,29.87,SSW,200,7.0,14.0,79,0.00,,---,0.00,VWS V14.01,2013-05-15 17:57:00,
2013-05-15 14:02:00,63.1,56.5,29.87,SSW,195,7.0,7.0,79,0.00,,---,0.00,VWS V14.01,2013-05-15 18:02:00,
2013-05-15 14:07:00,62.8,56.5,29.87,South,181,4.0,12.0,80,0.00,,---,0.00,VWS V14.01,2013-05-15 18:07:00,
2013-05-15 14:12:00,62.6,56.7,29.88,SE,136,7.0,12.0,81,0.00,,---,0.00,VWS V14.01,2013-05-15 18:12:00,
2013-05-15 14:17:00,62.3,56.7,29.87,South,181,7.0,12.0,82,0.00,,---,0.00,VWS V14.01,2013-05-15 18:17:00,
2013-05-15 14:22:00,62.4,56.8,29.87,South,190,5.0,12.0,82,0.00,,---,0.00,VWS V14.01,2013-05-15 18:22:00,
2013-05-15 14:27:00,62.5,56.9,29.86,SSW,205,3.0,12.0,82,0.00,,---,0.00,VWS V14.01,2013-05-15 18:27:00,
2013-05-15 14:32:00,62.4,56.8,29.83,SSW,203,3.0,8.0,82,0.00,,---,0.00,VWS V14.01,2013-05-15 18:32:00,
2013-05-15 14:37:00,62.2,56.6,29.82,SSW,197,5.0,12.0,82,0.00,,---,0.00,VWS V14.01,2013-05-15 18:37:00,
2013-05-15 14:42:00,62.0,57.1,29.83,SE,146,6.0,12.0,84,0.00,,---,0.00,VWS V14.01,2013-05-15 18:42:00,
2013-05-15 14:48:00,62.1,57.2,29.83,SSW,193,5.0,12.0,84,0.00,,---,0.00,VWS V14.01,2013-05-15 18:48:00,
2013-05-15 14:53:00,62.3,57.4,29.84,SSE,149,7.0,12.0,84,0.00,,---,0.00,VWS V14.01,2013-05-15 18:53:00,
2013-05-15 14:58:00,62.5,57.3,29.84,SW,225,10.0,12.0,83,0.00,,---,0.00,VWS V14.01,2013-05-15 18:58:00,
2013-05-15 15:03:00,62.9,57.3,29.84,South,190,7.0,8.0,82,0.00,,---,0.00,VWS V14.01,2013-05-15 19:03:00,
2013-05-15 15:08:00,63.4,57.5,29.84,SSW,208,3.0,8.0,81,0.00,,---,0.00,VWS V14.01,2013-05-15 19:08:00,
2013-05-15 15:13:00,63.7,57.8,29.83,SE,138,3.0,8.0,81,0.00,,---,0.00,VWS V14.01,2013-05-15 19:13:00,
2013-05-15 15:18:00,63.7,57.8,29.83,South,180,2.0,10.0,81,0.00,,---,0.00,VWS V14.01,2013-05-15 19:18:00,
2013-05-15 15:23:00,63.9,58.3,29.82,SSE,150,7.0,10.0,82,0.00,,---,0.00,VWS V14.01,2013-05-15 19:23:00,
2013-05-15 15:29:00,65.0,58.7,29.81,SW,231,3.0,12.0,80,0.00,,---,0.00,VWS V14.01,2013-05-15 19:29:00,
2013-05-15 15:34:00,66.1,59.0,29.79,South,169,6.0,6.0,78,0.00,,---,0.00,VWS V14.01,2013-05-15 19:34:00,
2013-05-15 15:39:00,65.8,58.8,29.77,SE,141,5.0,11.0,78,0.00,,---,0.00,VWS V14.01,2013-05-15 19:39:00,
2013-05-15 15:44:00,65.3,58.3,29.76,SSE,165,11.0,14.0,78,0.00,,---,0.00,VWS V14.01,2013-05-15 19:44:00,
2013-05-15 15:49:00,64.6,58.0,29.77,ESE,110,3.0,14.0,79,0.00,,---,0.00,VWS V14.01,2013-05-15 19:49:00,
2013-05-15 15:55:00,64.2,57.9,29.77,SE,128,2.0,14.0,80,0.00,,---,0.00,VWS V14.01,2013-05-15 19:55:00,
2013-05-15 16:00:00,64.3,58.0,29.76,SSE,165,9.0,14.0,80,0.00,,---,0.00,VWS V14.01,2013-05-15 20:00:00,
2013-05-15 16:05:00,64.8,58.1,29.75,SSE,156,7.0,9.0,79,0.00,,---,0.00,VWS V14.01,2013-05-15 20:05:00,
2013-05-15 16:10:00,65.2,58.5,29.75,SSE,165,4.0,10.0,79,0.00,,---,0.00,VWS V14.01,2013-05-15 20:10:00,
2013-05-15 16:15:00,65.6,58.2,29.74,South,174,5.0,14.0,77,0.00,,---,0.00,VWS V14.01,2013-05-15 20:15:00,
2013-05-15 16:20:00,66.1,58.3,29.73,SW,214,3.0,14.0,76,0.00,,---,0.00,VWS V14.01,2013-05-15 20:20:00,
2013-05-15 16:25:00,66.6,58.4,29.73,SW,235,6.0,15.0,75,0.00,,---,0.00,VWS V14.01,2013-05-15 20:25:00,
2013-05-15 16:30:00,66.8,58.3,29.73,SSW,201,6.0,15.0,74,0.00,,---,0.00,VWS V14.01,2013-05-15 20:30:00,
2013-05-15 16:36:00,66.9,58.3,29.72,South,177,6.0,15.0,74,0.00,,---,0.00,VWS V14.01,2013-05-15 20:36:00,
2013-05-15 16:41:00,67.0,58.5,29.72,SSW,210,4.0,15.0,74,0.00,,---,0.00,VWS V14.01,2013-05-15 20:41:00,
2013-05-15 16:46:00,67.7,58.7,29.72,SW,223,6.0,15.0,73,0.00,,---,0.00,VWS V14.01,2013-05-15 20:46:00,
2013-05-15 16:51:00,68.8,58.6,29.72,South,174,3.0,15.0,70,0.00,,---,0.00,VWS V14.01,2013-05-15 20:51:00,
2013-05-15 16:56:00,69.5,58.9,29.72,South,180,6.0,15.0,69,0.00,,---,0.00,VWS V14.01,2013-05-15 20:56:00,
2013-05-15 17:01:00,69.6,58.2,29.73,SW,222,9.0,15.0,67,0.00,,---,0.00,VWS V14.01,2013-05-15 21:01:00,
2013-05-15 17:06:00,70.6,57.8,29.73,SW,231,11.0,16.0,64,0.00,,---,0.00,VWS V14.01,2013-05-15 21:06:00,
2013-05-15 17:11:00,71.3,58.1,29.72,South,191,5.0,17.0,63,0.00,,---,0.00,VWS V14.01,2013-05-15 21:11:00,
2013-05-15 17:17:00,71.0,58.7,29.73,South,188,4.0,17.0,65,0.00,,---,0.00,VWS V14.01,2013-05-15 21:17:00,
2013-05-15 17:22:00,69.9,58.5,29.72,SE,132,3.0,17.0,67,0.00,,---,0.00,VWS V14.01,2013-05-15 21:22:00,
2013-05-15 17:27:00,68.7,58.5,29.72,SSW,207,3.0,17.0,70,0.00,,---,0.00,VWS V14.01,2013-05-15 21:27:00,
2013-05-15 17:32:00,67.8,58.5,29.72,SSE,159,8.0,8.0,72,0.00,,---,0.00,VWS V14.01,2013-05-15 21:32:00,
2013-05-15 17:37:00,67.1,58.2,29.72,SSW,195,2.0,10.0,73,0.00,,---,0.00,VWS V14.01,2013-05-15 21:37:00,
2013-05-15 17:43:00,67.1,58.5,29.72,SSW,205,4.0,10.0,74,0.00,,---,0.00,VWS V14.01,2013-05-15 21:43:00,
2013-05-15 17:48:00,67.6,59.0,29.71,South,190,4.0,10.0,74,0.00,,---,0.00,VWS V14.01,2013-05-15 21:48:00,
2013-05-15 17:53:00,68.4,59.4,29.71,SSW,204,1.0,10.0,73,0.00,,---,0.00,VWS V14.01,2013-05-15 21:53:00,
2013-05-15 17:58:00,68.9,59.5,29.71,SW,217,3.0,10.0,72,0.00,,---,0.00,VWS V14.01,2013-05-15 21:58:00,
2013-05-15 18:03:00,70.1,59.1,29.70,SSE,165,1.0,14.0,68,0.00,,---,0.00,VWS V14.01,2013-05-15 22:03:00,
2013-05-15 18:08:00,71.2,59.3,29.70,SW,214,5.0,14.0,66,0.00,,---,0.00,VWS V14.01,2013-05-15 22:08:00,
2013-05-15 18:14:00,72.6,59.3,29.70,SSW,201,3.0,14.0,63,0.00,,---,0.00,VWS V14.01,2013-05-15 22:14:00,
2013-05-15 18:19:00,73.3,59.0,29.69,SSW,208,5.0,14.0,61,0.00,,---,0.00,VWS V14.01,2013-05-15 22:19:00,
2013-05-15 18:24:00,73.6,59.3,29.69,South,190,2.0,14.0,61,0.00,,---,0.00,VWS V14.01,2013-05-15 22:24:00,
2013-05-15 18:30:00,73.9,59.6,29.69,SSE,158,9.0,14.0,61,0.00,,---,0.00,VWS V14.01,2013-05-15 22:30:00,
2013-05-15 18:35:00,74.0,59.2,29.69,SSW,211,4.0,7.0,60,0.00,,---,0.00,VWS V14.01,2013-05-15 22:35:00,
2013-05-15 18:40:00,74.2,60.4,29.69,SSE,160,3.0,7.0,62,0.00,,---,0.00,VWS V14.01,2013-05-15 22:40:00,
2013-05-15 18:45:00,72.8,59.9,29.69,South,179,3.0,7.0,64,0.00,,---,0.00,VWS V14.01,2013-05-15 22:45:00,
2013-05-15 18:50:00,71.6,59.7,29.69,South,178,5.0,7.0,66,0.00,,---,0.00,VWS V14.01,2013-05-15 22:50:00,
2013-05-15 18:55:00,70.6,60.0,29.70,SSW,195,1.0,7.0,69,0.00,,---,0.00,VWS V14.01,2013-05-15 22:55:00,
2013-05-15 19:00:00,70.6,60.3,29.70,SSW,208,0.0,7.0,70,0.00,,---,0.00,VWS V14.01,2013-05-15 23:00:00,
2013-05-15 19:05:00,70.6,60.8,29.70,SE,130,2.0,6.0,71,0.00,,---,0.00,VWS V14.01,2013-05-15 23:05:00,
2013-05-15 19:10:00,70.0,60.6,29.70,SE,124,1.0,6.0,72,0.00,,---,0.00,VWS V14.01,2013-05-15 23:10:00,
2013-05-15 19:15:00,69.6,60.6,29.70,SE,142,2.0,6.0,73,0.00,,---,0.00,VWS V14.01,2013-05-15 23:15:00,
2013-05-15 19:20:00,69.8,60.8,29.71,South,191,2.0,6.0,73,0.00,,---,0.00,VWS V14.01,2013-05-15 23:20:00,
2013-05-15 19:25:00,69.8,60.4,29.71,SSE,167,1.0,6.0,72,0.00,,---,0.00,VWS V14.01,2013-05-15 23:25:00,
2013-05-15 19:31:00,69.8,60.8,29.71,SSE,153,0.0,6.0,73,0.00,,---,0.00,VWS V14.01,2013-05-15 23:31:00,
2013-05-15 19:36:00,69.7,60.7,29.70,South,184,2.0,3.0,73,0.00,,---,0.00,VWS V14.01,2013-05-15 23:36:00,
2013-05-15 19:41:00,69.8,60.4,29.70,SSE,155,0.0,3.0,72,0.00,,---,0.00,VWS V14.01,2013-05-15 23:41:00,
2013-05-15 19:46:00,70.3,60.5,29.71,SSW,207,2.0,4.0,71,0.00,,---,0.00,VWS V14.01,2013-05-15 23:46:00,
2013-05-15 19:51:00,70.1,60.7,29.71,SE,141,0.0,4.0,72,0.00,,---,0.00,VWS V14.01,2013-05-15 23:51:00,
2013-05-15 19:56:00,69.6,60.6,29.71,SSE,166,1.0,4.0,73,0.00,,---,0.00,VWS V14.01,2013-05-15 23:56:00,
2013-05-15 20:01:00,69.1,60.5,29.71,South,174,2.0,4.0,74,0.00,,---,0.00,VWS V14.01,2013-05-16 00:01:00,
2013-05-15 20:06:00,68.8,60.6,29.71,South,190,0.0,2.0,75,0.00,,---,0.00,VWS V14.01,2013-05-16 00:06:00,
2013-05-15 20:11:00,68.5,60.3,29.71,SSE,156,0.0,2.0,75,0.00,,---,0.00,VWS V14.01,2013-05-16 00:11:00,
2013-05-15 20:17:00,68.2,60.3,29.71,SE,131,0.0,2.0,76,0.00,,---,0.00,VWS V14.01,2013-05-16 00:17:00,
2013-05-15 20:22:00,67.8,60.0,29.71,SE,138,0.0,2.0,76,0.00,,---,0.00,VWS V14.01,2013-05-16 00:22:00,
2013-05-15 20:27:00,67.5,60.0,29.71,SSW,198,0.0,3.0,77,0.00,,---,0.00,VWS V14.01,2013-05-16 00:27:00,
2013-05-15 20:32:00,67.2,60.1,29.71,SSE,153,0.0,1.0,78,0.00,,---,0.00,VWS V14.01,2013-05-16 00:32:00,
2013-05-15 20:38:00,66.9,60.2,29.71,South,186,1.0,1.0,79,0.00,,---,0.00,VWS V14.01,2013-05-16 00:38:00,
2013-05-15 20:43:00,66.6,59.9,29.71,SSE,162,0.0,2.0,79,0.00,,---,0.00,VWS V14.01,2013-05-16 00:43:00,
2013-05-15 20:48:00,66.3,60.0,29.71,SSE,167,0.0,2.0,80,0.00,,---,0.00,VWS V14.01,2013-05-16 00:48:00,
2013-05-15 20:53:00,66.1,60.1,29.72,South,173,0.0,2.0,81,0.00,,---,0.00,VWS V14.01,2013-05-16 00:53:00,
2013-05-15 20:58:00,65.8,59.8,29.71,SSW,197,0.0,2.0,81,0.00,,---,0.00,VWS V14.01,2013-05-16 00:58:00,
2013-05-15 21:03:00,65.6,60.0,29.72,SW,218,1.0,4.0,82,0.00,,---,0.00,VWS V14.01,2013-05-16 01:03:00,
2013-05-15 21:08:00,65.2,59.9,29.71,SE,132,1.0,4.0,83,0.00,,---,0.00,VWS V14.01,2013-05-16 01:08:00,
2013-05-15 21:14:00,64.9,60.0,29.71,SSE,160,2.0,5.0,84,0.00,,---,0.00,VWS V14.01,2013-05-16 01:14:00,
2013-05-15 21:19:00,64.5,59.9,29.71,South,180,1.0,5.0,85,0.00,,---,0.00,VWS V14.01,2013-05-16 01:19:00,
2013-05-15 21:24:00,64.3,59.7,29.72,South,173,4.0,6.0,85,0.00,,---,0.00,VWS V14.01,2013-05-16 01:24:00,
2013-05-15 21:29:00,64.1,59.8,29.72,South,187,2.0,6.0,86,0.00,,---,0.00,VWS V14.01,2013-05-16 01:29:00,
2013-05-15 21:34:00,64.1,59.8,29.72,SW,224,2.0,4.0,86,0.00,,---,0.00,VWS V14.01,2013-05-16 01:34:00,
2013-05-15 21:39:00,64.1,59.8,29.72,SW,219,3.0,6.0,86,0.00,,---,0.00,VWS V14.01,2013-05-16 01:39:00,
2013-05-15 21:44:00,64.1,59.5,29.71,SSW,208,2.0,6.0,85,0.00,,---,0.00,VWS V14.01,2013-05-16 01:44:00,
2013-05-15 21:50:00,64.1,59.5,29.72,SW,214,3.0,6.0,85,0.00,,---,0.00,VWS V14.01,2013-05-16 01:50:00,
2013-05-15 21:55:00,64.1,59.8,29.72,SW,217,2.0,6.0,86,0.00,,---,0.00,VWS V14.01,2013-05-16 01:55:00,
2013-05-15 22:00:00,64.0,59.7,29.72,SW,218,3.0,6.0,86,0.00,,---,0.00,VWS V14.01,2013-05-16 02:00:00,
2013-05-15 22:05:00,64.0,59.7,29.72,SSW,200,1.0,3.0,86,0.00,,---,0.00,VWS V14.01,2013-05-16 02:05:00,
2013-05-15 22:10:00,63.9,59.6,29.72,SE,135,0.0,3.0,86,0.00,,---,0.00,VWS V14.01,2013-05-16 02:10:00,
2013-05-15 22:15:00,63.9,59.6,29.71,SW,217,1.0,3.0,86,0.00,,---,0.00,VWS V14.01,2013-05-16 02:15:00,
2013-05-15 22:20:00,63.8,59.5,29.71,SSW,207,2.0,4.0,86,0.00,,---,0.00,VWS V14.01,2013-05-16 02:20:00,
2013-05-15 22:25:00,63.7,59.8,29.71,SSW,197,0.0,4.0,87,0.00,,---,0.00,VWS V14.01,2013-05-16 02:25:00,
2013-05-15 22:30:00,63.5,59.6,29.71,SSW,212,1.0,4.0,87,0.00,,---,0.00,VWS V14.01,2013-05-16 02:30:00,
2013-05-15 22:36:00,63.4,59.5,29.71,SSW,204,2.0,4.0,87,0.00,,---,0.00,VWS V14.01,2013-05-16 02:36:00,
2013-05-15 22:41:00,63.4,59.5,29.71,SSW,208,1.0,4.0,87,0.00,,---,0.00,VWS V14.01,2013-05-16 02:41:00,
2013-05-15 22:46:00,63.4,59.5,29.71,SW,225,1.0,4.0,87,0.00,,---,0.00,VWS V14.01,2013-05-16 02:46:00,
2013-05-15 22:51:00,63.4,59.5,29.71,SSW,212,3.0,4.0,87,0.00,,---,0.00,VWS V14.01,2013-05-16 02:51:00,
2013-05-15 22:56:00,63.4,59.5,29.70,SW,229,1.0,4.0,87,0.00,,---,0.00,VWS V14.01,2013-05-16 02:56:00,
2013-05-15 23:01:00,63.4,59.5,29.70,SSW,204,2.0,4.0,87,0.00,,---,0.00,VWS V14.01,2013-05-16 03:01:00,
2013-05-15 23:06:00,63.4,59.2,29.70,SW,222,2.0,4.0,86,0.00,,---,0.00,VWS V14.01,2013-05-16 03:06:00,
2013-05-15 23:11:00,63.3,59.0,29.70,SW,221,1.0,4.0,86,0.00,,---,0.00,VWS V14.01,2013-05-16 03:11:00,
2013-05-15 23:16:00,63.3,59.0,29.70,SW,229,4.0,6.0,86,0.00,,---,0.00,VWS V14.01,2013-05-16 03:16:00,
2013-05-15 23:21:00,63.4,59.2,29.70,SW,222,2.0,6.0,86,0.00,,---,0.00,VWS V14.01,2013-05-16 03:21:00,
2013-05-15 23:26:00,63.4,59.2,29.70,SW,229,4.0,6.0,86,0.00,,---,0.00,VWS V14.01,2013-05-16 03:26:00,
2013-05-15 23:31:00,63.4,59.2,29.70,WSW,243,0.0,1.0,86,0.00,,---,0.00,VWS V14.01,2013-05-16 03:31:00,
2013-05-15 23:37:00,63.4,59.2,29.70,WSW,239,4.0,6.0,86,0.00,,---,0.00,VWS V14.01,2013-05-16 03:37:00,
2013-05-15 23:42:00,63.5,58.9,29.70,WSW,250,2.0,6.0,85,0.00,,---,0.00,VWS V14.01,2013-05-16 03:42:00,
2013-05-15 23:47:00,63.5,58.9,29.70,SSW,206,2.0,6.0,85,0.00,,---,0.00,VWS V14.01,2013-05-16 03:47:00,
2013-05-15 23:53:00,63.5,58.9,29.70,SW,218,3.0,6.0,85,0.00,,---,0.00,VWS V14.01,2013-05-16 03:53:00,
2013-05-15 23:58:00,63.6,59.0,29.70,SW,233,4.0,7.0,85,0.00,,---,0.00,VWS V14.01,2013-05-16 03:58:00,